Location: Ahstedt
(52.2048°N, 10.1060°E)
Time: 07:09:09
(UTC+00:00)

Cosmos 540 Rocket - Pass Details

Date: 18 January 2026
Orbit: 736 x 747 km, 74.1° (Epoch: 18 February)

Event Time Altitude Azimuth Distance (km) Brightness Sun altitude
Exits shadow 04:40:38 21° 349° (NNW) 1,618 5.0 -23.6°
Maximum altitude 04:43:53 54° 59° (ENE) 896 4.1 -23.1°
Drops below altitude 10° 04:48:51 10° 137° (SE) 2,242 6.5 -22.3°
Sets 04:51:15 0° 142° (SE) 3,163 7.3 -21.9°
